Regional Weather Roundup
Issued by NWS

Home | Current Version | Previous Version | Graphics & Text | Print | Product List | Glossary On
Versions: 1 2 3 4 5 6 7 8 9 10 11 12 13 14 15 16 17 18 19 20 21 22 23 24 25 26 27 28 29 30 31 32 33 34 35 36 37 38 39 40 41 42 43 44 45 46 47 48 49 50
000
ASUS45 KBOU 272107
RWRCO

WEATHER ROUNDUP FOR COLORADO
NATIONAL WEATHER SERVICE DENVER/BOULDER CO
300 PM MDT TUE JUN 27 2017

NOTE: "FAIR" INDICATES FEW OR NO CLOUDS BELOW 12000 FEET WITH NO
SIGNIFICANT WEATHER AND/OR OBSTRUCTIONS TO VISIBILITY.

COZ001>005-013-030-031-272200-
...NORTHWEST COLORADO...

CITY           SKY/WX    TMP DP  RH WIND       PRES   REMARKS
CRAIG          FAIR      89  15   6 W9G22     29.96F
HAYDEN         FAIR      84  25  11 W23G29    29.99S
MEEKER         FAIR      88  15   6 SW17G28   29.98F
RABBIT EARS PA MOCLDY    63  30  29 W13G24    30.32S
STEAMBOAT SPGS FAIR      79  28  15 W13G18    30.02S
WALDEN         PTSUNNY   75  25  15 W20G29    30.13S
$$

COZ006>008-011-272200-
...WEST CENTRAL VALLEYS...

CITY           SKY/WX    TMP DP  RH WIND       PRES   REMARKS
GRAND JUNCTION FAIR      96  15   5 SW15      29.88F
MONTROSE       FAIR      91  23   8 SW13G28   30.00F
EAGLE          MOSUNNY   86  27  11 W18G31    30.02S
RIFLE          FAIR      94   8   4 W16G26    29.93F
DELTA          FAIR      98  20   6 W10G22    29.93F
NUCLA          FAIR      90  19   7 SW12G33   30.05F
$$

COZ017>023-064>068-272200-
...SOUTHWEST COLORADO...

CITY           SKY/WX    TMP DP  RH WIND       PRES   REMARKS
DURANGO        FAIR      87  22   9 SW15G30   30.11F
CORTEZ         FAIR      93  19   7 SW14G31   30.04F
PAGOSA SPRINGS FAIR      82  22  10 W9G23     30.20F
TELLURIDE      FAIR      74  25  16 SW10G23   30.32F
WOLF CREEK PAS FAIR      59  30  33 SW22G35   30.55S
$$

COZ009-010-012-014-032>034-037-058>063-272200-
...CENTRAL COLORADO...

CITY           SKY/WX    TMP DP  RH WIND       PRES   REMARKS
ASPEN          FAIR      80  21  11 W10G17    30.13F
BUENA VISTA    FAIR      82  15   8 SW10G33   30.11S
COPPER MTN     FAIR      64  16  15 W23G38    30.46R
BERTHOUD PASS  FAIR      54  41  62 W25G46    30.47F
COTTONWOOD PAS FAIR      75   1   5 SW23G37   30.27F
GUNNISON       FAIR      81  27  14 W21G41    30.12F
KREMMLING      FAIR      91  10   5 W21G31    30.06S
LEADVILLE      FAIR      72  19  13 W17G24    30.27F
MONARCH PASS   FAIR      61  23  23 W40G48    30.55F
SALIDA         FAIR      84  29  13 S17G23    30.14F
SUNLIGHT       FAIR      70  28  21 SW14G33   30.37F
WILKERSON PASS FAIR      70  23  17 SW13G25   30.39S
$$

COZ069>075-272200-
...SAN LUIS VALLEY/SANGRE DE CRISTO MOUNTAINS...

CITY           SKY/WX    TMP DP  RH WIND       PRES   REMARKS
ALAMOSA        FAIR      85  29  13 SW22G30   30.12F
DEL NORTE      FAIR      82  31  16 SW25G36   30.15F
LA VETA PASS   LGT RAIN  68  34  28 MISG      30.45S
SAGUACHE       FAIR      77  39  25 SW18G25   30.16F
$$

COZ035-036-038>040-272200-
...NORTHERN COLORADO FRONT RANGE...

CITY           SKY/WX    TMP DP  RH WIND       PRES   REMARKS
DENVER INTL AP PTSUNNY   93  29  10 SW15      29.82F
DMNS CITY PARK   N/A     89  40  17 E3        29.82F
AURORA         PTSUNNY   88  33  13 S18G37    29.86S
FRONT RANGE AP PTSUNNY   93  28  10 SW8G22    29.85S
ERIE MUNI ARPT FAIR      90  31  12 W5        29.80S
BOULDER MUN AP FAIR      95  32  11 W16G26    29.80F
CENTENNIAL     PTSUNNY   89  29  11 NW12      29.87F
BROOMFIELD     FAIR      90  32  12 CALM      29.85F
FORT COLLINS   FAIR      94  38  14 NW16      29.79R
LONGMONT       FAIR      97  32  10 W12G25    29.79F
$$

COZ041-046-047-076>085-087-088-272200-
...PIKES PEAK/PALMER DIVIDE AND SOUTHERN FOOTHILLS...

CITY           SKY/WX    TMP DP  RH WIND       PRES   REMARKS
COLO. SPRINGS  FAIR      92  29  10 SW18      29.92F
A. F. ACADEMY  FAIR      88  25  10 SW20G28   29.94F
SCHRIEVER AFB  FAIR      88  31  13 SW10G36   29.94F
CHEYENNE MTN   LGT RAIN  81  27  14 NE3       29.95F
ELLICOTT       FAIR     N/A N/A N/A SW17G36   29.91F
FALCON           N/A     87  26  10 SW20G26   29.99F
FORT CARSON    FAIR      90  27  10 SW16G29   29.89F
LIMON          FAIR      85  41  21 E14       29.86F
MONUMENT HILL  FAIR      88  30  12 SW18G28   30.00F
CANON CITY     SUNNY     99  36  11 SW16G29   29.87F
WALSENBURG     FAIR      95  37  13 SW25G31   29.96F
TRINIDAD       FAIR      83  44  25 SE9       29.98F
$$

COZ042>045-048>051-090-091-272200-
...NORTHEAST COLORADO...

CITY           SKY/WX    TMP DP  RH WIND       PRES   REMARKS
GREELEY ARPT   FAIR      97  42  15 NW21G28   29.74F
AKRON          FAIR      98  31   9 SW12      29.77F
BURLINGTON     NOT AVBL
WRAY           FAIR      99  41  13 S21G28    29.74F
YUMA           FAIR      88  50  27 S21G26    29.75F
STERLING       FAIR      97  41  14 SW12G17   29.71F
HOLYOKE        NOT AVBL
FORT MORGAN    FAIR      97  35  11 SW3       29.76F
$$

COZ086-089-092>099-272200-
...SOUTHEAST COLORADO...

CITY           SKY/WX    TMP DP  RH WIND       PRES   REMARKS
PUEBLO         FAIR      95  41  15 S5        29.82F
LA JUNTA       FAIR      99  45  15 SW10G23   29.80F
LAMAR          NOT AVBL
SPRINGFIELD      N/A     92  49  22 S28G36    29.89F
$$



USA.gov is the U.S. government's official web portal to all federal, state and local government web resources and services.